Location: Isle of Man Observatory
(54.1776°N, 4.6264°W)
Time: 15:08:19
(UTC+02:00)

ARIANE 6 FM1 Upper Stage - Pass Details

Date: 22 April 2026
Orbit: 526 x 601 km, 62.0° (Epoch: 19 May)

Event Time Altitude Azimuth Distance (km) Brightness Sun altitude
Rises 01:10:17 0° 307° (NW) 2,685 7.0 -22.2°
Reaches altitude 10° 01:12:30 10° 310° (NW) 1,785 6.0 -22.3°
Maximum altitude 01:16:30 69° 34° (NE) 569 2.7 -22.5°
Enters shadow 01:16:48 65° 68° (ENE) 584 2.6 -22.5°
